Weather History for VTCC - August, 2013

Change the Weather History Date:

Wednesday, August 7, 2013

  Actual Average Record
Temperature  
Mean Temperature 80 °F -  
Max Temperature 85 °F 84 °F 93 °F (2003)
Min Temperature 75 °F 73 °F 73 °F (1996)
Cooling Degree Days 15    
Growing Degree Days 30 (Base 50)    
Moisture  
Dew Point 73 °F    
Average Humidity 83    
Maximum Humidity 91    
Minimum Humidity 66    
Precipitation  
Precipitation 1.57 in 0.31 in - ()
Sea Level Pressure  
Sea Level Pressure 29.78 in    
Wind  
Wind Speed 2 mph ()    
Max Wind Speed 9 mph    
Max Gust Speed -    
Visibility 6.1 miles    
Events Rain , Thunderstorm    
Averages and records for this station are not official NWS values.
T = Trace of Precipitation, MM = Missing Value Source: Averaged Metar Reports

Daily Weather History Graph

Daily Weather History Graph

Search for Another Location

Airport or City:

Trip Planner

Search our weather history database for the weather conditions in past years. The results will help you decide how hot, cold, wet, or windy it might be!

Date:

Astronomy

Aug. 07, 2013 Rise Set
Actual Time 6:03 AM ICT 6:56 PM ICT
Civil Twilight 5:40 AM ICT 7:19 PM ICT
Nautical Twilight 5:13 AM ICT 7:46 PM ICT
Astronomical Twilight 4:45 AM ICT 8:14 PM ICT
Moon 6:10 AM ICT (8/7) 7:02 PM ICT (8/7)
Length of Visible Light 13h 39m
Length of Day
12h 53m
New Moon, 0% of the Moon is Illuminated
Aug 7
New Moon
Aug 14
First Quarter
Aug 21
Full
Aug 28
Last Quarter
Sep 5
New

Hourly Weather History & Observations

Time (ICT) Temp. Heat Index Dew Point Humidity Pressure Visibility Wind Dir Wind Speed Gust Speed Precip Events Conditions
12:00 AM 78.8 °F - 73.4 °F 83% 29.83 in 6.2 mi Calm Calm - N/A   Mostly Cloudy
12:30 AM 78.8 °F - 73.4 °F 83% 29.80 in 6.2 mi Calm Calm - N/A   Mostly Cloudy
1:00 AM 80 °F - 76 °F 84% 29.78 in 6 mi Calm Calm - -   Mostly Cloudy
1:30 AM 78.8 °F - 73.4 °F 83% 29.80 in 6.2 mi West 2.3 mph - N/A   Mostly Cloudy
2:00 AM 78.8 °F - 73.4 °F 83% 29.80 in 6.2 mi West 2.3 mph - N/A   Mostly Cloudy
3:00 AM 77.0 °F - 73.4 °F 89% 29.77 in 6.2 mi Calm Calm - N/A   Mostly Cloudy
3:30 AM 77.0 °F - 73.4 °F 89% 29.77 in 6.2 mi WSW 2.3 mph - N/A   Mostly Cloudy
4:30 AM 77.0 °F - 73.4 °F 89% 29.77 in 6.2 mi Calm Calm - N/A   Mostly Cloudy
5:00 AM 77.0 °F - 73.4 °F 89% 29.77 in 6.2 mi WSW 2.3 mph - N/A   Mostly Cloudy
5:30 AM 77.0 °F - 73.4 °F 89% 29.77 in 6.2 mi North 1.2 mph - N/A   Scattered Clouds
6:00 AM 77.0 °F - 73.4 °F 89% 29.77 in 6.2 mi North 2.3 mph - N/A   Scattered Clouds
6:30 AM 77.0 °F - 71.6 °F 83% 29.77 in 6.2 mi North 5.8 mph - N/A   Scattered Clouds
7:00 AM 78 °F - 75 °F 88% 29.74 in 6 mi Calm Calm - -   Scattered Clouds
7:00 AM 77.0 °F - 71.6 °F 83% 29.80 in 6.2 mi Calm Calm - N/A   Scattered Clouds
7:30 AM 78.8 °F - 73.4 °F 83% 29.80 in 6.2 mi West 3.5 mph - N/A   Scattered Clouds
8:00 AM 80.6 °F 85.4 °F 73.4 °F 79% 29.80 in 6.2 mi WNW 2.3 mph - N/A   Mostly Cloudy
8:30 AM 80.6 °F 85.4 °F 73.4 °F 79% 29.83 in 6.2 mi NW 2.3 mph - N/A   Mostly Cloudy
9:00 AM 82.4 °F 88.2 °F 73.4 °F 74% 29.83 in 6.2 mi NW 2.3 mph - N/A   Mostly Cloudy
9:30 AM 82.4 °F 88.2 °F 73.4 °F 74% 29.83 in 6.2 mi West 2.3 mph - N/A   Mostly Cloudy
10:00 AM 84.2 °F 90.9 °F 73.4 °F 70% 29.83 in 6.2 mi NNE 1.2 mph - N/A   Mostly Cloudy
10:30 AM 84.2 °F 90.9 °F 73.4 °F 70% 29.83 in 6.2 mi SE 2.3 mph - N/A   Mostly Cloudy
11:00 AM 84.2 °F 90.9 °F 73.4 °F 70% 29.83 in 6.2 mi SE 4.6 mph - N/A   Mostly Cloudy
11:30 AM 84.2 °F 89.6 °F 71.6 °F 66% 29.83 in 6.2 mi South 6.9 mph - N/A   Mostly Cloudy
12:00 PM 84.2 °F 89.6 °F 71.6 °F 66% 29.80 in 6.2 mi SE 6.9 mph - N/A   Mostly Cloudy
12:30 PM 77.0 °F - 73.4 °F 89% 29.83 in 2.5 mi ENE 9.2 mph - N/A Rain , Thunderstorm Thunderstorms and Rain
1:00 PM 77 °F - 75 °F 91% 29.76 in 5 mi Calm Calm - - Rain , Thunderstorm Thunderstorms and Rain
1:00 PM 75.2 °F - 71.6 °F 89% 29.80 in 5.6 mi ENE 3.5 mph - N/A Rain , Thunderstorm Light Thunderstorms and Rain
1:30 PM 75.2 °F - 71.6 °F 89% 29.80 in 6.2 mi East 2.3 mph - N/A Rain , Thunderstorm Light Thunderstorms and Rain
2:00 PM 75.2 °F - 71.6 °F 89% 29.80 in 6.2 mi North 3.5 mph - N/A Rain Light Rain
2:30 PM 77.0 °F - 71.6 °F 83% 29.77 in 6.2 mi NNW 3.5 mph - N/A Rain Light Rain
3:00 PM 77.0 °F - 71.6 °F 83% 29.77 in 6.2 mi North 1.2 mph - N/A Rain Light Rain
3:30 PM 77.0 °F - 71.6 °F 83% 29.74 in 6.2 mi West 4.6 mph - N/A Rain Light Rain
4:00 PM 77.0 °F - 73.4 °F 89% 29.71 in 6.2 mi West 1.2 mph - N/A Rain Light Rain
4:30 PM 78.8 °F - 73.4 °F 83% 29.74 in 6.2 mi Calm Calm - N/A   Light Drizzle
5:00 PM 80.6 °F 85.4 °F 73.4 °F 79% 29.71 in 6.2 mi SE 3.5 mph - N/A   Mostly Cloudy
5:30 PM 80.6 °F 85.4 °F 73.4 °F 79% 29.71 in 6.2 mi SSE 3.5 mph - N/A   Mostly Cloudy
6:00 PM 78.8 °F - 73.4 °F 83% 29.74 in 6.2 mi East 3.5 mph - N/A   Mostly Cloudy
6:30 PM 78.8 °F - 71.6 °F 78% 29.71 in 6.2 mi SSE 2.3 mph - N/A   Mostly Cloudy
7:00 PM 79 °F - 75 °F 85% 29.69 in 6 mi Calm Calm - -   Partly Cloudy
7:00 PM 78.8 °F - 71.6 °F 78% 29.74 in 6.2 mi Calm Calm - N/A   Mostly Cloudy
7:30 PM 78.8 °F - 73.4 °F 83% 29.74 in 6.2 mi WNW 2.3 mph - N/A   Mostly Cloudy
8:00 PM 78.8 °F - 73.4 °F 83% 29.77 in 6.2 mi NW 2.3 mph - N/A   Mostly Cloudy
8:30 PM 77.0 °F - 73.4 °F 89% 29.77 in 6.2 mi West 3.5 mph - N/A   Mostly Cloudy
9:00 PM 77.0 °F - 73.4 °F 89% 29.77 in 6.2 mi NW 2.3 mph - N/A   Scattered Clouds
9:30 PM 77.0 °F - 73.4 °F 89% 29.77 in 6.2 mi Calm Calm - N/A   Scattered Clouds
10:00 PM 77.0 °F - 73.4 °F 89% 29.80 in 6.2 mi NE 3.5 mph - N/A   Scattered Clouds
10:30 PM 77.0 °F - 73.4 °F 89% 29.80 in 6.2 mi Calm Calm - N/A   Scattered Clouds
11:00 PM 77.0 °F - 73.4 °F 89% 29.80 in 6.2 mi WNW 2.3 mph - N/A   Scattered Clouds
11:30 PM 77.0 °F - 73.4 °F 89% 29.80 in 6.2 mi Calm Calm - N/A   Scattered Clouds